This is the latest recevied weather packets stored in our database for station/object GW4003. If no packets are shown the sender has not sent any weather packets the latest 10 day(s).
| Time | Temp. | Humidity | Pressure | Rain* | Wind** | Luminosity | Snow |
|---|---|---|---|---|---|---|---|
| 1777945794 | 14.44° C | 49% | 1011.3 hPa | 0 mm | - | - | - |
| 1777945491 | 15° C | 49% | 1011.2 hPa | 0 mm | - | - | - |
| 1777945187 | 15° C | 51% | 1011 hPa | 0 mm | - | - | - |
| 1777944884 | 15° C | 50% | 1011 hPa | 0 mm | - | - | - |
| 1777944581 | 15° C | 50% | 1011.1 hPa | 0 mm | - | - | - |
| 1777944276 | 15° C | 50% | 1011.1 hPa | 0 mm | - | - | - |
| 1777943976 | 15° C | 50% | 1011 hPa | 0 mm | - | - | - |
| 1777943676 | 15° C | 50% | 1011 hPa | 0 mm | - | - | - |
| 1777943375 | 15° C | 52% | 1011.1 hPa | 0 mm | - | - | - |
| 1777943074 | 15.56° C | 53% | 1011.2 hPa | 0 mm | - | - | - |
| 1777942772 | 15.56° C | 52% | 1011.1 hPa | 0 mm | - | - | - |
| 1777942469 | 16.11° C | 51% | 1011 hPa | 0 mm | - | - | - |
| 1777942165 | 16.11° C | 48% | 1010.9 hPa | 0 mm | - | - | - |
| 1777941862 | 16.67° C | 41% | 1011 hPa | 0 mm | - | - | - |
| 1777941558 | 16.67° C | 39% | 1011 hPa | 0 mm | - | - | - |
| 1777941255 | 16.67° C | 39% | 1011 hPa | 0 mm | - | - | - |
| 1777940952 | 16.67° C | 38% | 1010.9 hPa | 0 mm | - | - | - |
| 1777940649 | 16.67° C | 38% | 1010.9 hPa | 0 mm | - | - | - |
| 1777940345 | 16.67° C | 38% | 1010.7 hPa | 0 mm | - | - | - |
| 1777940042 | 16.67° C | 38% | 1010.6 hPa | 0 mm | - | - | - |
| 1777939739 | 16.67° C | 38% | 1010.5 hPa | 0 mm | - | - | - |
| 1777939435 | 16.67° C | 38% | 1010.3 hPa | 0 mm | - | - | - |
| 1777939132 | 17.22° C | 38% | 1010.3 hPa | 0 mm | - | - | - |
| 1777938829 | 17.22° C | 38% | 1010.2 hPa | 0 mm | - | - | - |
| 1777938526 | 17.22° C | 37% | 1010.2 hPa | 0 mm | - | - | - |
* Rain latest hour (hover to see other rain measurements)
** Current wind speed in m/s (hover to see current wind gust speed)